WB4ME Weather Reports


time (UTC)temp
F
wind
direction
speed
knots
gust
knots
rain 1hr
in
rain 24hr
in
rain mn
in
humidity
%
barometer
mb
20260906092004 67 34 0.0 0.0 0.00 0.00 0.01 89 1027.3
20260906090004 66 84 0.0 0.0 0.00 0.00 0.01 89 1027.3
20260906085004 66 84 0.0 0.0 0.00 0.00 0.01 89 1027.3
20260906084004 67 84 0.0 0.0 0.00 0.00 0.01 89 1027.3
20260906083004 67 84 0.0 0.0 0.00 0.00 0.00 89 1027.3
20260906082004 67 84 0.0 0.0 0.00 0.00 0.00 89 1027.3
20260906081004 67 84 0.0 0.0 0.00 0.00 0.00 89 1027.3
20260906075004 66 84 0.0 0.9 0.00 0.00 0.00 89 1027.3
20260906074003 66 37 0.0 0.0 0.00 0.00 0.00 89 1027.3
20260906072004 66 37 0.0 0.0 0.00 0.00 0.00 89 1027.3
20260906065004 67 117 0.0 0.0 0.00 0.00 0.00 89 1027.3
20260906064003 67 117 0.0 0.0 0.00 0.00 0.00 89 1027.3
20260906063004 67 117 0.0 0.0 0.00 0.00 0.00 89 1027.3
20260906062003 67 117 0.0 0.0 0.00 0.00 0.00 89 1027.3
20260906061003 66 117 0.0 0.0 0.00 0.00 0.00 89 1027.3
20260906060004 66 120 0.0 0.0 0.00 0.00 0.00 89 1027.3
20260906055004 67 122 0.0 1.7 0.00 0.00 0.00 89 1027.3
20260906054004 67 134 0.0 0.9 0.00 0.00 0.00 89 1027.3
20260906053003 67 113 0.0 0.0 0.00 0.00 0.00 89 1027.3
20260906052003 68 113 0.0 0.0 0.00 0.00 0.00 89 1027.3
20260906051003 67 113 0.0 0.0 0.00 0.00 0.00 89 1027.3
20260906050004 67 113 0.0 0.0 0.00 0.00 0.00 90 1027.3
20260906045003 67 113 0.0 0.0 0.00 0.00 0.00 90 1027.3
20260906044003 67 113 0.0 0.0 0.00 0.00 0.00 90 1027.3
20260906043003 68 113 0.0 0.0 0.00 0.00 0.00 90 1027.3
20260906041003 68 113 0.0 0.0 0.00 0.00 0.00 91 1027.3
20260906040006 68 113 0.0 0.0 0.00 0.00 0.00 91 1027.3
20260906035004 68 113 0.0 0.0 0.00 0.00 0.07 91 1027.3
20260906032004 69 113 0.0 0.0 0.00 0.00 0.07 92 1027.3
20260906030004 70 112 0.0 0.0 0.00 0.00 0.07 92 1027.3
20260906025004 70 115 0.0 0.9 0.00 0.00 0.07 92 1027.3
20260906024003 70 116 0.0 0.0 0.00 0.00 0.07 92 1027.3
20260906023003 70 116 0.0 1.7 0.00 0.00 0.07 92 1027.3
20260906022004 70 113 0.0 0.0 0.00 0.00 0.07 92 1027.3
20260906021004 70 114 0.0 0.0 0.00 0.00 0.07 92 1027.3
20260906015004 71 113 0.0 0.0 0.00 0.00 0.07 91 1027.3
20260906014004 71 113 0.0 0.0 0.00 0.00 0.07 91 1027.3
20260906013004 72 114 0.0 0.0 0.00 0.00 0.07 90 1027.3
20260906012004 72 114 0.0 0.9 0.00 0.00 0.07 89 1027.3
20260906011004 73 113 0.9 1.7 0.00 0.00 0.07 88 1027.3
20260906010005 73 234 0.0 0.0 0.00 0.00 0.07 87 1027.3
20260906005004 73 234 0.0 0.0 0.00 0.00 0.07 87 1027.3
20260906003004 74 234 0.0 0.0 0.00 0.00 0.07 86 1027.3
20260906001005 75 234 0.0 0.0 0.00 0.00 0.07 84 1027.3
20260905235004 76 234 0.0 0.9 0.00 0.00 0.07 81 1027.3
20260905234004 77 233 0.0 0.0 0.00 0.00 0.07 80 1027.3
20260905233004 78 233 0.0 0.0 0.00 0.00 0.07 78 1027.3
20260905232004 78 231 0.9 2.6 0.00 0.00 0.07 77 1027.3
20260905230004 79 266 0.9 3.5 0.00 0.00 0.07 75 1027.3
20260905225004 80 236 4.3 5.2 0.00 0.00 0.07 74 1027.3
20260905223004 80 249 0.9 5.2 0.00 0.00 0.07 72 1027.3
20260905222004 80 182 1.7 4.3 0.00 0.00 0.07 74 1027.3
20260905220005 81 214 4.3 6.1 0.00 0.00 0.07 74 1027.3
20260905215005 81 265 4.3 7.0 0.00 0.00 0.07 73 1027.3
20260905214004 80 213 2.6 7.8 0.00 0.00 0.07 74 1027.3
20260905213004 80 220 7.0 7.0 0.00 0.00 0.07 74 1027.3
20260905212004 80 218 3.5 5.2 0.00 0.00 0.07 75 1027.3
20260905211004 80 263 3.5 7.0 0.00 0.00 0.07 73 1027.3
20260905204004 79 229 6.1 7.0 0.00 0.00 0.07 77 1027.3
20260905203005 79 221 4.3 8.7 0.00 0.00 0.07 76 1027.3
20260905201004 78 220 3.5 7.0 0.00 0.00 0.07 79 1027.3
20260905200006 77 215 7.0 7.8 0.00 0.00 0.07 81 1027.3
20260905195004 77 246 2.6 6.1 0.00 0.00 0.07 82 1027.3
20260905194004 77 233 2.6 8.7 0.00 0.00 0.07 79 1027.3
20260905192004 75 229 3.5 7.0 0.00 0.00 0.07 83 1027.3
20260905191005 75 250 0.0 0.0 0.00 0.00 0.07 84 1027.3
20260905190006 74 215 0.0 0.0 0.00 0.00 0.07 87 1027.3
20260905184004 73 220 2.6 6.1 0.00 0.00 0.07 87 1027.3
20260905183005 73 224 2.6 4.3 0.00 0.00 0.07 87 1027.3
20260905182004 73 243 0.0 2.6 0.00 0.00 0.07 90 1027.3
20260905181004 73 255 0.0 3.5 0.00 0.00 0.07 90 1027.3
20260905180005 72 245 0.0 3.5 0.00 0.00 0.07 90 1027.3
20260905175004 72 224 1.7 2.6 0.00 0.00 0.07 90 1027.3
20260905174005 71 231 3.5 3.5 0.00 0.00 0.07 90 1027.3
20260905173004 70 222 0.0 0.9 0.00 0.00 0.07 91 1027.3
20260905172004 70 273 0.0 0.9 0.00 0.00 0.07 92 1027.3
20260905171005 69 245 0.0 2.6 0.00 0.00 0.07 92 1027.3
20260905170006 69 257 0.0 6.1 0.00 0.00 0.07 92 1027.3
20260905165004 69 101 0.9 5.2 0.00 0.00 0.07 92 1027.3
20260905164004 69 200 0.9 3.5 0.00 0.00 0.06 91 1027.3
20260905161004 70 118 0.0 2.6 0.00 0.00 0.04 89 1027.3
20260905160005 71 283 0.0 1.7 0.00 0.00 0.04 85 1027.3
20260905155004 73 145 0.0 7.0 0.00 0.00 0.03 81 1027.3
20260905154004 78 285 0.9 7.8 0.00 0.00 0.01 79 1027.3
20260905153005 80 253 0.0 4.3 0.00 0.00 0.01 81 1027.3
20260905150004 80 241 0.0 5.2 0.00 0.00 0.01 84 1027.3
20260905145004 78 227 3.5 7.0 0.00 0.00 0.01 83 1027.3
20260905144004 78 238 4.3 5.2 0.00 0.00 0.01 85 1027.3
20260905143004 77 213 2.6 3.5 0.00 0.00 0.01 87 1027.3
20260905142004 76 244 3.5 5.2 0.00 0.00 0.01 87 1027.3
20260905141004 77 218 2.6 4.3 0.00 0.00 0.01 87 1027.3
20260905140005 76 236 4.3 4.3 0.00 0.00 0.01 88 1027.3
20260905135004 75 254 0.9 3.5 0.00 0.00 0.01 89 1027.3
20260905133004 73 51 0.0 0.0 0.00 0.00 0.01 91 1027.3
20260905132004 72 51 0.0 0.0 0.00 0.00 0.01 89 1027.3
20260905131004 72 51 0.0 0.0 0.00 0.00 0.01 86 1027.3
20260905130004 70 51 0.0 0.0 0.00 0.00 0.01 87 1027.3
20260905125006 70 51 0.0 0.0 0.00 0.00 0.01 87 1027.3
20260905124004 70 51 0.0 0.0 0.00 0.00 0.01 87 1027.3
20260905122004 66 51 0.0 0.0 0.00 0.00 0.01 88 1027.3
20260905121004 66 51 0.0 0.0 0.00 0.00 0.01 88 1027.3
20260905120004 65 51 0.0 0.0 0.00 0.00 0.01 88 1027.3
20260905115004 65 51 0.0 0.0 0.00 0.00 0.01 89 1027.3
20260905114005 64 51 0.0 0.0 0.00 0.00 0.01 89 1027.3
20260905113005 64 51 0.0 0.0 0.00 0.00 0.01 89 1027.3
20260905112005 64 51 0.0 0.0 0.00 0.00 0.01 89 1027.3
20260905111005 64 51 0.0 0.0 0.00 0.00 0.01 89 1027.3
20260905105005 64 51 0.0 0.0 0.00 0.00 0.01 89 1027.3
20260905104005 65 51 0.0 0.0 0.00 0.00 0.01 89 1027.3
20260905102006 65 51 0.0 0.0 0.00 0.00 0.01 89 1027.3
20260905101005 64 51 0.0 0.0 0.00 0.00 0.01 89 1027.3
20260905100005 64 51 0.0 0.0 0.00 0.00 0.01 89 1027.3
20260905095005 64 51 0.0 0.0 0.00 0.00 0.01 89 1027.3
20260905094004 65 51 0.0 0.0 0.00 0.00 0.01 89 1027.3
20260905093004 64 51 0.0 0.0 0.00 0.00 0.01 89 1027.3